Estación Meteorológica Peña el Pijo (Robertgarden) [ 09/30/20 11:46:16 CEST ]

Fecha Hora Presion(HPa) Temp (°C) Humedad % Rocio (°C) Viento ( m/s) Direccion Lluvia 1Hora(mm) Lluvia 24H(mm) LLuvia Total(mm)
2020-Mar-19 01:09:16 1011.600 - - - - N     39.88
2020-Mar-19 02:11:17 1011.300 - - - - N     39.88
2020-Mar-19 03:08:55 1010.600 - - - - N     39.88
2020-Mar-19 04:09:10 1010.000 - - - - N     39.88
2020-Mar-19 05:09:15 1010.000 - - - - N     39.88
2020-Mar-19 06:09:05 1009.900 - - - - N     39.88
2020-Mar-19 07:09:02 1010.000 - - - - N     39.88
2020-Mar-19 08:09:09 1010.100 - - - - N     39.88
2020-Mar-19 09:09:25 1010.100 - - - - N     39.88
2020-Mar-19 10:08:51 1010.300 - - - - N     39.88
2020-Mar-19 11:09:24 1010.400 - - - - N     39.88
2020-Mar-19 12:09:02 1010.100 - - - - N     39.88
2020-Mar-19 13:09:19 1009.800 - - - - N     39.88
2020-Mar-19 14:09:03 1009.100 - - - - N     39.88
2020-Mar-19 15:09:22 1008.400 - - - - N     39.88
2020-Mar-19 16:09:03 1008.200 - - - - N     39.88
2020-Mar-19 17:09:10 1007.800 - - - - N     39.88
2020-Mar-19 18:09:05 1007.400 - - - - N     39.88
2020-Mar-19 19:09:18 1007.500 - - - - N     39.88
2020-Mar-19 20:09:24 1007.700 - - - - N     39.88
2020-Mar-19 21:08:47 1008.100 - - - - N     39.88
2020-Mar-19 22:09:08 1008.000 - - - - N     39.88
2020-Mar-19 23:09:04 1007.900 - - - - N     39.88

Temperatura Máxima:    Temperatura Mínima:
Presión Máxima:1011.600 Hpa    Presión Mínima:1007.400 Hpa


Volver